Location: Newark
(25.0000°N, 73.5000°E)
Time: 23:22:45
(UTC+00:00)

X-37B - Pass Details

Date: 24 June 2021
Orbit: 383 x 392 km, 45.0° (Epoch: 01 July)

Event Time Altitude Azimuth Distance (km) Brightness Sun altitude
Rises 14:50:53 0° 250° (WSW) 2,247 5.0 -11.0°
Reaches altitude 10° 14:53:08 10° 263° (W) 1,395 4.2 -11.5°
Maximum altitude 14:55:52 27° 324° (NW) 769 2.9 -12.0°
Drops below altitude 10° 14:58:37 10° 25° (NNE) 1,396 3.5 -12.5°
Sets 15:00:52 0° 38° (NE) 2,250 4.4 -12.9°
